Tracking 35331 objects as of 16-Sep-2026
HD Live streaming from Space Station
objects crossing your sky now

COSMOS 886 DEB


COSMOS 886 DEB is no longer on orbit


NORAD ID: 9821
Int'l Code: 1976-126AH
Launch date: December 27, 1976
Source: Commonwealth of Independent States (former USSR) (CIS)
Launch site: TYURATAM MISSILE AND SPACE COMPLEX (TTMTR)
Decay date: 2025-10-30

Note: This is SATELLITE DEBRIS
Your satellite tracking list
Your tracking list is empty




NASA's NSSDC Master Catalog

Two Line Element Set (TLE):
1  9821U 76126AH  25302.47899729  .05388280  90487-1  80361-2 0  9992
2  9821  65.6998  78.5929 0003304 275.5021  84.5782 16.10977493431073
Source of the keplerian elements: AFSPC